[[{"header":{"parameterUnit":"m.s-1","parameterCategory":1,"la1":30.2991,"la2":30.254,"lo1":-89.0895,"lo2":-89.0444,"dy":0.0017,"dx":0.0017,"nx":28,"ny":28,"refTime":"2025-12-21T09:00:00:Z","depth":0,"parameterNumber":2,"parameterNumberName":"U-component_of_WINDS"},"data":[0,0,0,0,0,0,0,0,0,0,0,0,0,0,0,0,0,0,0,0,0,0,0,0,0,0,0,0,0,0,0,0,0,0,0,0,0,0,0,0,0,0,0,0,0,0,0,0,0,0,0,0,0,0,0,0,0,0,-2.6775,-2.6775,0,-2.6797,-2.6797,-2.6798,-2.6729,-2.6727,-2.6725,-2.6723,-2.6747,-2.6749,-2.6752,0,0,0,0,0,0,0,0,0,0,0,0,0,-2.6674,-2.6677,-2.6775,-2.6775,-2.6776,-2.6797,-2.6797,-2.6798,-2.6729,-2.6727,-2.6724,-2.6722,-2.6746,-2.6749,-2.6752,0,0,0,0,0,0,0,0,0,0,0,0,0,-2.671,-2.6677,-2.6775,-2.6744,-2.6741,-2.6797,-2.6797,-2.6798,-2.673,-2.6727,-2.6723,-2.6721,-2.6745,-2.6749,-2.6752,-2.6839,0,0,-2.6764,-2.6766,0,0,0,0,0,0,0,0,-2.6708,-2.6713,-2.6748,-2.6746,-2.6743,-2.6757,-2.677,-2.6812,-2.6731,-2.6734,-2.6723,-2.6719,-2.6753,-2.6756,-2.6767,-2.684,-2.6841,-2.6765,-2.6767,-2.6769,-2.677,0,0,0,0,0,0,0,-2.6705,-2.6712,-2.6784,-2.6749,-2.6746,-2.6729,-2.6731,-2.6778,-2.6761,-2.6734,-2.6729,-2.6732,-2.6751,-2.6763,-2.6767,-2.6842,-2.6765,-2.6768,-2.677,-2.6772,-2.6987,-2.699,0,0,0,0,0,0,-2.6707,-2.671,-2.6783,-2.6784,-2.6717,-2.6734,-2.6735,-2.6756,-2.676,-2.6758,-2.6735,-2.6729,-2.6758,-2.6762,-2.6768,-2.6868,-2.6769,-2.6772,-2.6775,-2.6983,-2.6987,-2.6991,0,0,0,0,0,0,-2.6705,-2.6714,-2.6782,-2.6746,-2.6753,-2.6739,-2.6762,-2.6758,-2.677,-2.6761,-2.6758,-2.6751,-2.6756,-2.6762,-2.6822,-2.6868,-2.6774,-2.6778,-2.6979,-2.6984,-2.6989,-2.7071,0,0,0,0,0,0,-2.6702,-2.6714,-2.6746,-2.6747,-2.6756,-2.6836,-2.6765,-2.6761,-2.6777,-2.6769,-2.6775,-2.6773,-2.6754,-2.6816,-2.6825,-2.6872,-2.6781,-2.6975,-2.6982,-2.6987,-2.7065,-2.7079,-2.7091,0,0,0,0,0,-2.6699,-2.6769,-2.6748,-2.6758,-2.6796,-2.6839,-2.6843,-2.682,-2.6781,-2.6814,-2.6808,-2.6773,-2.6862,-2.6823,-2.6833,-2.6881,-2.6972,-2.698,-2.6987,-2.7059,-2.7076,-2.7091,0,0,0,0,0,0,-2.6775,-2.6769,-2.6746,-2.6818,-2.6829,-2.6827,-2.6867,-2.6839,-2.6862,-2.6854,-2.6824,-2.6826,-2.689,-2.6892,-2.6848,-2.6965,-2.691,-2.692,-2.6961,-2.6978,-2.6991,-2.6988,-2.6784,0,0,0,0,0,-2.68,-2.6835,-2.6828,-2.6893,-2.6899,-2.6883,-2.69,-2.6881,-2.6891,-2.6896,-2.6894,-2.6906,-2.6937,-2.6957,-2.6985,-2.7065,-2.7064,-2.7103,-2.7116,-2.7127,-2.7136,-2.7177,-2.7193,-2.7016,-2.7016,-2.7016,0,0,-2.6852,-2.6853,-2.6877,-2.6908,-2.6914,-2.6951,-2.6887,-2.6929,-2.6955,-2.6902,-2.6958,-2.6957,-2.6969,-2.7038,-2.7069,-2.7041,-2.7185,-2.7137,-2.7145,-2.7148,-2.7186,-2.7203,-2.7218,-2.7021,-2.702,-2.7019,0,0,-2.6966,-2.6971,-2.7024,-2.7032,-2.7042,-2.703,-2.7044,-2.7046,-2.7043,-2.7098,-2.7059,-2.709,-2.7144,-2.7153,-2.7165,-2.7282,-2.725,-2.7292,-2.736,-2.7401,-2.7415,-2.7427,-2.7468,-2.7483,-2.7301,-2.7301,-2.7301,0,-2.703,-2.7083,-2.7056,-2.71,-2.7114,-2.7067,-2.7121,-2.713,-2.7149,-2.716,-2.7129,-2.7195,-2.7199,-2.727,-2.7298,-2.731,-2.7323,-2.729,-2.7415,-2.7427,-2.7438,-2.7476,-2.7492,-2.7306,-2.7305,-2.7305,-2.7304,0,-2.716,-2.7198,-2.724,-2.7258,-2.7278,-2.7327,-2.7307,-2.733,-2.7309,-2.7301,-2.7358,-2.7361,-2.7388,-2.7404,-2.7385,-2.7472,-2.7454,-2.742,-2.7364,-2.746,-2.7495,-2.751,-2.7313,-2.7311,-2.731,-2.7308,0,0,-2.7322,-2.7324,-2.734,-2.7347,-2.7355,-2.7384,-2.7431,-2.7456,-2.7476,-2.7491,-2.7529,-2.7575,-2.7543,-2.7556,-2.7538,-2.7573,-2.7664,-2.7534,-2.7534,-2.7557,-2.776,-2.7784,-2.7802,-2.7644,-2.7647,-2.7649,-2.7758,0,-2.7432,-2.7511,-2.7488,-2.7568,-2.7602,-2.7558,-2.7599,-2.7608,-2.7602,-2.763,-2.7623,-2.7655,-2.7611,-2.7619,-2.7652,-2.7646,-2.7704,-2.7638,-2.7678,-2.768,-2.7676,-2.7821,-2.7847,-2.795,-2.7772,-2.7774,-2.7776,0,-2.7572,-2.7591,-2.7674,-2.7675,-2.7688,-2.7725,-2.7746,-2.7774,-2.7784,-2.7776,-2.7791,-2.7765,-2.7811,-2.7756,-2.7819,-2.7774,-2.779,-2.7789,-2.7793,-2.7794,-2.7733,-2.7825,-2.7983,-2.7998,-2.7798,-2.7796,-2.7795,0,-2.7679,-2.7727,-2.7782,-2.779,-2.7793,-2.7819,-2.7822,-2.7828,-2.7845,-2.7864,-2.7875,-2.7899,-2.7913,-2.7932,-2.7913,-2.7875,-2.7979,-2.7923,-2.7974,-2.7974,-2.7996,-2.7995,-2.8157,-2.8009,-2.8009,-2.8008,-2.8008,0,-2.7805,-2.7857,-2.783,-2.7864,-2.7921,-2.7894,-2.7951,-2.7949,-2.7955,-2.7987,-2.7952,-2.7983,-2.7957,-2.7986,-2.7972,-2.8025,-2.8032,-2.8027,-2.8023,-2.803,-2.803,-2.8038,-2.803,-2.8012,-2.8012,-2.8011,-2.801,0,-2.7934,-2.7918,-2.7975,-2.7973,-2.7974,-2.8016,-2.8014,-2.8046,-2.8037,-2.8078,-2.8087,-2.8073,-2.8106,-2.8089,-2.8123,-2.8113,-2.8182,-2.8168,-2.8178,-2.8174,-2.8226,-2.8221,-2.8398,-2.8419,-2.8259,-2.826,-2.8262,0,-2.8014,-2.8053,-2.8055,-2.8074,-2.8079,-2.811,-2.8126,-2.8102,-2.8121,-2.8134,-2.8164,-2.8193,-2.8215,-2.8269,-2.8263,-2.8288,-2.8274,-2.8335,-2.8278,-2.8283,-2.8273,-2.8271,-2.8274,-2.8346,-2.8347,-2.8349,-2.835,0,-2.8157,-2.8148,-2.8173,-2.8195,-2.8216,-2.8232,-2.8246,-2.8264,-2.824,-2.8263,-2.8295,-2.8312,-2.8346,-2.8375,-2.8398,-2.8401,-2.8372,-2.8368,-2.8381,-2.8388,-2.8391,-2.8389,-2.8208,-2.8364,-2.8363,-2.8362,-2.8361,-2.836,-2.8263,-2.8295,-2.8301,-2.833,-2.8338,-2.8351,-2.838,-2.8375,-2.8401,-2.8426,-2.8411,-2.8449,-2.8457,-2.8483,-2.849,-2.852,-2.8495,-2.8515,-2.8519,-2.8524,-2.853,-2.8388,-2.8524,-2.8523,-2.8523,-2.8523,-2.8522,0,-2.8403,-2.8405,-2.8432,-2.8452,-2.8475,-2.8445,-2.8459,-2.8479,-2.8513,-2.8523,-2.8545,-2.8582,-2.861,-2.8606,-2.8631,-2.8656,-2.8643,-2.8663,-2.866,-2.8661,-2.8551,-2.8536,-2.8673,-2.8673,-2.8673,-2.8673,-2.8673,-2.8673,-2.8479,-2.8531,-2.8522,-2.8577,-2.8578,-2.8615,-2.8625,-2.8637,-2.8644,-2.8687,-2.871,-2.8707,-2.8711,-2.8736,-2.8761,-2.8759,-2.8769,-2.8794,-2.8787,-2.8684,-2.8669,-2.8655,-2.8641,-2.8797,-2.8797,-2.8895,-2.8896,-2.8896]},{"header":{"parameterUnit":"m.s-1","parameterCategory":1,"la1":30.2991,"la2":30.254,"lo1":-89.0895,"lo2":-89.0444,"dy":0.0017,"dx":0.0017,"nx":28,"ny":28,"refTime":"2025-12-21T09:00:00:Z","depth":0,"parameterNumber":3,"parameterNumberName":"V-component_of_WINDS"},"data":[0,0,0,0,0,0,0,0,0,0,0,0,0,0,0,0,0,0,0,0,0,0,0,0,0,0,0,0,0,0,0,0,0,0,0,0,0,0,0,0,0,0,0,0,0,0,0,0,0,0,0,0,0,0,0,0,0,0,0.6823,0.6822,0,0.6752,0.6752,0.6751,0.6713,0.6713,0.6713,0.6713,0.6638,0.6636,0.6634,0,0,0,0,0,0,0,0,0,0,0,0,0,0.6923,0.6921,0.6823,0.6822,0.6821,0.6753,0.6752,0.6751,0.6713,0.6713,0.6713,0.6713,0.6639,0.6636,0.6634,0,0,0,0,0,0,0,0,0,0,0,0,0,0.6868,0.692,0.6823,0.6794,0.6791,0.6753,0.6752,0.675,0.6713,0.6713,0.6713,0.6713,0.6639,0.6637,0.6634,0.6618,0,0,0.6625,0.6624,0,0,0,0,0,0,0,0,0.6872,0.6865,0.6799,0.6796,0.6792,0.6742,0.6759,0.6706,0.6713,0.6743,0.6713,0.6713,0.6672,0.6667,0.6654,0.6614,0.6611,0.6625,0.6623,0.6622,0.6621,0,0,0,0,0,0,0,0.6875,0.6868,0.6795,0.6798,0.6794,0.6784,0.6776,0.6749,0.6709,0.674,0.6737,0.673,0.667,0.6657,0.6652,0.661,0.6625,0.6622,0.662,0.6619,0.6555,0.6555,0,0,0,0,0,0,0.6884,0.6871,0.6797,0.6793,0.6833,0.6782,0.6774,0.6758,0.6709,0.6702,0.673,0.6728,0.6662,0.6655,0.6649,0.6627,0.6622,0.6619,0.6617,0.6555,0.6555,0.6555,0,0,0,0,0,0,0.6886,0.6878,0.68,0.6831,0.682,0.6781,0.6763,0.6757,0.6743,0.6701,0.6694,0.6723,0.6661,0.6653,0.6626,0.6624,0.6618,0.6615,0.6555,0.6555,0.6555,0.6585,0,0,0,0,0,0,0.6889,0.6879,0.6873,0.6831,0.6819,0.6779,0.6763,0.6755,0.6738,0.6735,0.6693,0.6686,0.6661,0.6631,0.6623,0.662,0.6613,0.6555,0.6555,0.6555,0.6584,0.6586,0.6587,0,0,0,0,0,0.6893,0.6883,0.6873,0.6864,0.6811,0.6779,0.6772,0.6744,0.6738,0.6732,0.6705,0.6687,0.6626,0.6628,0.662,0.6616,0.6555,0.6555,0.6555,0.6583,0.6585,0.6587,0,0,0,0,0,0,0.6924,0.6877,0.6865,0.6841,0.6815,0.6773,0.6763,0.6747,0.6721,0.6719,0.6685,0.6675,0.6652,0.6631,0.6635,0.6598,0.6589,0.6587,0.6613,0.6615,0.6617,0.6622,0.661,0,0,0,0,0,0.6928,0.6907,0.6867,0.685,0.6838,0.6803,0.6788,0.6769,0.674,0.6728,0.6699,0.6671,0.6645,0.6629,0.6603,0.6581,0.6571,0.6574,0.6576,0.6577,0.6576,0.6563,0.6564,0.6555,0.6555,0.6555,0,0,0.6936,0.6908,0.6897,0.6856,0.6833,0.6811,0.6794,0.6771,0.6755,0.6724,0.6698,0.6676,0.6642,0.6618,0.6605,0.6599,0.6577,0.6578,0.6579,0.6577,0.6563,0.6564,0.6565,0.6555,0.6555,0.6555,0,0,0.694,0.6917,0.6901,0.6879,0.6845,0.6822,0.6818,0.6779,0.6764,0.6737,0.6714,0.6694,0.665,0.6627,0.6609,0.6607,0.6589,0.6599,0.6608,0.6596,0.6597,0.6598,0.6596,0.6596,0.6598,0.6598,0.6598,0,0.6954,0.6922,0.6894,0.6874,0.6856,0.6829,0.6812,0.6791,0.6751,0.6739,0.6733,0.6679,0.6654,0.6624,0.6624,0.661,0.6605,0.6603,0.6599,0.66,0.66,0.6598,0.6598,0.6599,0.6599,0.6599,0.6599,0,0.6941,0.6919,0.691,0.6872,0.6854,0.6836,0.6804,0.6789,0.6772,0.675,0.6723,0.6693,0.6661,0.6652,0.6635,0.662,0.6618,0.6606,0.6596,0.6602,0.66,0.66,0.6602,0.6601,0.6601,0.66,0,0,0.6961,0.691,0.6907,0.689,0.6851,0.6833,0.6814,0.6784,0.6771,0.6744,0.6727,0.6691,0.6681,0.6661,0.6641,0.6631,0.6631,0.662,0.6619,0.6623,0.6613,0.6621,0.6621,0.6619,0.6619,0.6619,0.6616,0,0.6959,0.6923,0.6898,0.6872,0.6852,0.6826,0.6809,0.6784,0.6763,0.6742,0.6718,0.6694,0.6682,0.667,0.6659,0.6633,0.6628,0.6633,0.6602,0.6601,0.6611,0.662,0.6629,0.6627,0.6615,0.6615,0.6614,0,0.6952,0.6927,0.69,0.6864,0.6855,0.684,0.6811,0.6791,0.6762,0.6747,0.6726,0.6706,0.6684,0.6677,0.6645,0.6649,0.6635,0.6621,0.662,0.6616,0.6608,0.6615,0.6626,0.6625,0.6613,0.6613,0.6613,0,0.6969,0.6929,0.6907,0.6894,0.6852,0.6842,0.6824,0.6795,0.6779,0.6753,0.6742,0.6714,0.6698,0.6676,0.6649,0.6646,0.6621,0.6611,0.6608,0.6608,0.6602,0.6603,0.661,0.6595,0.6595,0.6595,0.6595,0,0.6969,0.6953,0.6915,0.6901,0.6883,0.6854,0.6837,0.6816,0.6791,0.6773,0.6749,0.6732,0.6697,0.6676,0.6655,0.6632,0.6625,0.6613,0.6607,0.6614,0.6616,0.6604,0.6603,0.6595,0.6595,0.6595,0.6595,0,0.6985,0.6959,0.6933,0.6897,0.6887,0.6875,0.6843,0.6829,0.6808,0.6786,0.6779,0.6745,0.6719,0.669,0.6654,0.664,0.6618,0.661,0.6629,0.6625,0.6624,0.6624,0.6623,0.6621,0.6608,0.6608,0.6608,0,0.6986,0.6974,0.6936,0.6923,0.6906,0.6885,0.6869,0.6841,0.6825,0.6791,0.6781,0.6754,0.6731,0.6691,0.6662,0.6635,0.6626,0.6627,0.6621,0.663,0.6625,0.6626,0.6625,0.6629,0.6629,0.6629,0.663,0,0.6992,0.698,0.6958,0.6932,0.6914,0.6892,0.6869,0.6859,0.6826,0.6809,0.6784,0.6766,0.673,0.6703,0.6673,0.6653,0.6636,0.6632,0.663,0.6637,0.6648,0.6642,0.6633,0.6632,0.6632,0.6631,0.6631,0.6631,0.7,0.6988,0.6961,0.6937,0.6917,0.6897,0.6882,0.686,0.6838,0.6808,0.6792,0.6767,0.6738,0.6695,0.6677,0.6656,0.665,0.6647,0.6646,0.6645,0.6647,0.6652,0.665,0.665,0.665,0.665,0.665,0,0.7005,0.6986,0.6965,0.6934,0.6916,0.6903,0.6877,0.6862,0.684,0.6816,0.6794,0.6765,0.6739,0.6709,0.6681,0.667,0.6662,0.6664,0.6664,0.666,0.6654,0.6659,0.6672,0.6672,0.6672,0.6672,0.6672,0.6672,0.7005,0.6984,0.6969,0.6938,0.6919,0.6895,0.6881,0.6862,0.6842,0.6811,0.679,0.6771,0.6744,0.6715,0.6691,0.6682,0.6673,0.6678,0.6667,0.6662,0.666,0.6658,0.6663,0.6676,0.6676,0.6675,0.6675,0.6675]}]]